Flight Track Log - Related Links

Times and Time Zones

All times are in EDT time to prevent confusion due to time zone crossing. See the SWA554 flight status page for this flight to view local times or setup timezone preferences in your user account.

Time Position Orientation Groundspeed Altitude Reporting Facility
EDT Latitude Longitude Course Direction KTS MPH feet Rate Location/Type
Sat 10:12:09 PM 38.7167 -121.6000 90° East 145 167 1,500  Level Northern Cal TRACON
Sat 10:13:09 PM 38.7167 -121.5500 90° East 226 260 4,300 2,842 Climbing Northern Cal TRACON
Sat 10:14:03 PM 38.6833 -121.5000 130° Southeast 246 283 6,900 3,250 Climbing Northern Cal TRACON
Sat 10:15:09 PM 38.6333 -121.4000 123° Southeast 326 375 10,800 3,243 Climbing Northern Cal TRACON
Sat 10:15:54 PM 38.5978 -121.3403 127° Southeast 318 366 12,900 3,396 Climbing Oakland Center
Sat 10:16:55 PM 38.5389 -121.2311 125° Southeast 358 412 16,800 3,787 Climbing Oakland Center
Sat 10:17:56 PM 38.4781 -121.1239 126° Southeast 380 437 20,600 3,787 Climbing Oakland Center
Sat 10:18:57 PM 38.4003 -120.9822 125° Southeast 402 463 24,500 3,197 Climbing Oakland Center
Sat 10:19:58 PM 38.3297 -120.8561 125° Southeast 428 493 27,100 2,459 Climbing Oakland Center
Sat 10:20:59 PM 38.2556 -120.7236 125° Southeast 452 520 29,500 2,213 Climbing Oakland Center
Sat 10:22:00 PM 38.1611 -120.6092 136° Southeast 464 534 31,600 2,430 Climbing Oakland Center
Sat 10:23:00 PM 38.0553 -120.5069 143° Southeast 475 547 34,400 2,579 Climbing Oakland Center
Sat 10:24:01 PM 37.9522 -120.4061 142° Southeast 468 539 36,800 2,115 Climbing Oakland Center
Sat 10:25:02 PM 37.8500 -120.3086 143° Southeast 461 531 38,700 1,033 Climbing Oakland Center
Sat 10:26:03 PM 37.7486 -120.2106 143° Southeast 459 528 38,900 98 Climbing Oakland Center
Sat 10:27:04 PM 37.6472 -120.1117 142° Southeast 460 529 38,900  Level Oakland Center
Sat 10:28:05 PM 37.5419 -120.0189 145° Southeast 461 531 38,900  Level Oakland Center
Sat 10:29:06 PM 37.4411 -119.9214 142° Southeast 456 525 38,900  Level Oakland Center
Sat 10:30:06 PM 37.3406 -119.8231 142° Southeast 458 527 38,900  Level Oakland Center
Sat 10:31:07 PM 37.2431 -119.7297 143° Southeast 455 524 38,900  Level Oakland Center
Sat 10:32:08 PM 37.1428 -119.6322 142° Southeast 456 525 38,900  Level Oakland Center
Sat 10:33:09 PM 37.0017 -119.5983 169° South 433 498 38,900  Level Oakland Center
Sat 10:34:10 PM 36.8811 -119.5983 180° South 432 497 38,900  Level Oakland Center
Sat 10:35:11 PM 36.7667 -119.6292 192° South 421 484 38,900  Level Oakland Center
Sat 10:36:11 PM 36.6653 -119.6967 208° Southwest 415 478 38,900  Level Oakland Center
Sat 10:37:12 PM 36.5611 -119.7672 209° Southwest 423 487 38,900  Level Oakland Center
Sat 10:38:13 PM 36.4589 -119.8361 208° Southwest 419 482 38,900  Level Oakland Center
Sat 10:39:14 PM 36.3569 -119.9036 208° Southwest 417 480 38,900  Level Oakland Center
Sat 10:40:15 PM 36.2558 -119.9714 208° Southwest 415 478 38,900  Level Oakland Center
Sat 10:41:16 PM 36.1400 -119.9775 182° South 435 501 38,900  Level Oakland Center
Sat 10:42:17 PM 36.0206 -119.9294 162° South 446 513 38,900  Level Oakland Center
Sat 10:43:17 PM 35.9050 -119.8881 164° South 433 498 38,900  Level Oakland Center
Sat 10:44:18 PM 35.7878 -119.8439 163° South 437 503 38,900  Level Oakland Center
Sat 10:45:19 PM 35.6692 -119.7983 163° South 442 509 38,900 -393 Level Oakland Center
Sat 10:46:20 PM 35.5517 -119.7531 163° South 441 507 38,100 -885 Descending Oakland Center
Sat 10:47:21 PM 35.4339 -119.7086 163° South 439 505 37,100 -966 Descending Oakland Center
Sat 10:48:18 PM 35.3183 -119.6656 163° South 436 502 36,200 -966 Descending Los Angeles Center
Sat 10:49:19 PM 35.2075 -119.5997 154° Southeast 444 511 35,200 -934 Descending Los Angeles Center
Sat 10:50:20 PM 35.1053 -119.5114 145° Southeast 448 516 34,300 -934 Descending Los Angeles Center
Sat 10:51:21 PM 35.0031 -119.4261 146° Southeast 445 512 33,300 -1,707 Descending Los Angeles Center
Sat 10:52:23 PM 34.9028 -119.3403 145° Southeast 442 509 30,800 -2,488 Descending Los Angeles Center
Sat 10:53:24 PM 34.8025 -119.2553 145° Southeast 438 504 28,200 -2,754 Descending Los Angeles Center
Sat 10:54:25 PM 34.6844 -119.1553 145° Southeast 433 498 25,200 -2,557 Descending Los Angeles Center
Sat 10:55:26 PM 34.5983 -119.0831 145° Southeast 428 493 23,000 -2,311 Descending Los Angeles Center
Sat 10:56:27 PM 34.5044 -119.0050 146° Southeast 407 468 20,500 -2,410 Descending Los Angeles Center
Sat 10:57:28 PM 34.4131 -118.9294 146° Southeast 395 455 18,100 -2,537 Descending Los Angeles Center
Sat 10:58:30 PM 34.2967 -118.8583 153° Southeast 389 448 15,300 -2,634 Descending Los Angeles Center
Sat 10:59:31 PM 34.1972 -118.8231 164° South 376 433 12,700 -1,756 Descending Los Angeles Center
Sat 11:00:33 PM 34.1039 -118.7881 163° South 349 402 11,700 -1,268 Descending Los Angeles Center
Sat 11:01:34 PM 34.0358 -118.7253 143° Southeast 312 359 10,100 -984 Descending Los Angeles Center
Sat 11:02:35 PM 34.0272 -118.6342 96° East 271 312 9,700 -787 Descending Los Angeles Center
Sat 11:03:36 PM 34.0192 -118.5492 96° East 257 296 8,500 -1,131 Descending Los Angeles Center
Sat 11:04:37 PM 34.0106 -118.4653 97° East 253 291 7,400 -885 Descending Los Angeles Center
Sat 11:05:38 PM 34.0161 -118.3992 84° East 225 259 6,700 -976 Descending Los Angeles Center
Sat 11:06:40 PM 34.0200 -118.3325 86° East 204 235 5,400 -1,317 Descending Los Angeles Center
Sat 11:07:41 PM 34.0275 -118.2669 82° East 198 228 4,000 -1,230 Descending Los Angeles Center
Sat 11:08:42 PM 33.9917 -118.2406 149° Southeast 189 217 2,900 -984 Descending Los Angeles Center
Sat 11:09:43 PM 33.9639 -118.2881 235° Southwest 160 184 2,000 -787 Descending Los Angeles Center
Sat 11:10:44 PM 33.9586 -118.3342 262° West 146 168 1,300 -732 Descending Los Angeles Center
Sat 11:11:46 PM 33.9556 -118.3803 265° West 142 163 500 -585 Descending Los Angeles Center
Sat 11:12:47 PM 33.9511 -118.4194 262° West 140 161 100 -393 Descending Los Angeles Center
Sat 11:14:00 PM 33.9425 -118.4081 228° Southwest  Level Estimated
Sat 11:21:00 PM 33.9425 -118.4081 228° Southwest  Level Estimated

Login

Don't have an account? Register now (free) for customized features, flight alerts, and more!